Flag for Switzerland Weather past 2 weeks in Zug, Zug, Switzerland

Now
56 °F

Cool.


Feels Like: 56 °F
Forecast: 43 / 76 °F
Wind: 1 mph from Northwest

Location: Zurich Town / Ville.

Current Time: Jul 30, 2015 at 2:36:44 AM

Latest Report: Jul 30, 2015 at 1:00 AM


Visibility: N/A

Pressure: 30.02 "Hg

Humidity: 91%

Dew point: 53 °F

Location of ZugLocation

Historic Weather in Zug — Graph

°F

Zug temperature yesterday

Maximum temperature yesterday: 60 °F (at 2:00 PM)
Minimum temperature yesterday: 55 °F (at 5:00 AM)
Average temperature yesterday: 58 °F

Past Weeks' High & Low Weather Summary

 TemperatureHumidityPressure
High92 °F (Jul 21, 5:00 PM)98% (Jul 27, 2:00 AM)30.17 "Hg (Jul 27, 2:00 AM)
Low55 °F (Jul 26, 6:00 AM)24% (Jul 16, 4:00 PM)29.66 "Hg (Jul 24, 5:00 PM)
Average71 °F64%29.94 "Hg
* Reported Jul 15 1:00 AM — Jul 30 1:00 AM, Zug, Weather by CustomWeather, © 2015

Note: Actual official high and low records may vary slightly from our data, if they occured in-between our weather recording intervals... More about our weather records

Advertising

Zug weather history for previous 24 hours

 ConditionsComfort  
Time TempWeatherWind HumidityBarometerVisibility
1:00 AM
Thu, Jul 30
56 °FCool.1 mph91%30.02 "HgN/A
12:00 AM56 °FCool.No wind94%30.02 "HgN/A
11:00 PM
Wed, Jul 29
57 °FCool.2 mph88%30.01 "HgN/A
10:00 PM57 °FCool.2 mph87%30.00 "HgN/A
9:00 PM57 °FCool.3 mph87%29.97 "HgN/A
8:00 PM58 °FCool.5 mph88%29.95 "HgN/A
7:00 PM60 °FCool.8 mph89%29.92 "HgN/A
6:00 PM59 °FCool.10 mph92%29.90 "HgN/A
5:00 PM58 °FCool.7 mph95%29.90 "HgN/A
4:00 PM59 °FCool.7 mph96%29.88 "HgN/A
3:00 PM60 °FCool.7 mph94%29.87 "HgN/A
2:00 PM60 °FOvercast.6 mph85%29.86 "HgN/A
1:00 PM60 °FCool.3 mph87%29.86 "HgN/A
12:00 PM58 °FCool.5 mph91%29.86 "HgN/A
11:00 AM59 °FCool.3 mph90%29.85 "HgN/A
10:00 AM60 °FCool.2 mph81%29.85 "HgN/A
9:00 AM59 °FCool.2 mph81%29.85 "HgN/A
8:00 AM58 °FCool.2 mph83%29.87 "HgN/A
7:00 AM57 °FCool.2 mph83%29.89 "HgN/A
6:00 AM56 °FCool.3 mph78%29.91 "HgN/A
5:00 AM55 °FCool.2 mph85%29.93 "HgN/A
4:00 AM55 °FCool.1 mph82%29.93 "HgN/A
3:00 AM57 °FCool.3 mph70%29.94 "HgN/A
2:00 AM57 °FCool.3 mph77%29.93 "HgN/A
Weather by CustomWeather, © 2015

See weather overviewHow to use our weather pages